| time (UTC) | temp C | wind direction | speed KPH | gust KPH | rain 1hr cm | rain 24hr cm | rain mn cm | humidity % | barometer mb |
| 20260507023517 | -17 | 0.0 | 0.0 | 0.00 | 0.20 | 0.00 | |||
| 20260507021017 | -17 | 0.0 | 0.0 | 0.00 | 0.20 | 0.00 | |||
| 20260507014517 | -17 | 0.0 | 0.0 | 0.00 | 0.20 | 0.00 | |||
| 20260507012517 | -17 | 0.0 | 0.0 | 0.00 | 0.20 | 0.00 | |||
| 20260507011537 | -17 | 0.0 | 0.0 | 0.00 | 0.20 | 0.00 | |||
| 20260507005517 | -17 | 0.0 | 0.0 | 0.00 | 0.20 | 0.00 | |||
| 20260507003016 | -17 | 0.0 | 0.0 | 0.00 | 0.20 | 0.00 | |||
| 20260507000516 | -17 | 0.0 | 0.0 | 0.00 | 0.20 | 0.00 | |||
| 20260506234017 | -17 | 0.0 | 0.0 | 0.00 | 0.20 | 0.00 | |||
| 20260506231517 | -17 | 0.0 | 0.0 | 0.00 | 0.20 | 0.00 | |||
| 20260506225516 | -17 | 0.0 | 0.0 | 0.00 | 0.20 | 0.00 | |||
| 20260506224537 | -17 | 0.0 | 0.0 | 0.00 | 0.20 | 0.00 | |||
| 20260506222517 | -17 | 0.0 | 0.0 | 0.00 | 0.20 | 0.00 | |||
| 20260506220017 | -17 | 0.0 | 0.0 | 0.00 | 0.20 | 0.00 | |||
| 20260506213515 | -17 | 0.0 | 0.0 | 0.00 | 0.20 | 0.30 | |||
| 20260506211016 | -17 | 0.0 | 0.0 | 0.00 | 0.20 | 0.30 | |||
| 20260506204535 | -17 | 0.0 | 0.0 | 0.00 | 0.20 | 0.30 | |||
| 20260506202515 | -17 | 0.0 | 0.0 | 0.00 | 0.20 | 0.30 | |||
| 20260506201515 | -17 | 0.0 | 0.0 | 0.00 | 0.20 | 0.30 | |||
| 20260506195516 | -17 | 0.0 | 0.0 | 0.00 | 0.20 | 0.30 | |||
| 20260506193515 | -17 | 0.0 | 0.0 | 0.00 | 0.20 | 0.30 | |||
| 20260506192536 | -17 | 0.0 | 0.0 | 0.00 | 0.20 | 0.30 | |||
| 20260506191016 | -17 | 0.0 | 0.0 | 0.00 | 0.20 | 0.30 | |||
| 20260506190035 | -17 | 0.0 | 0.0 | 0.00 | 0.20 | 0.30 | |||
| 20260506184516 | -17 | 0.0 | 0.0 | 0.00 | 0.20 | 0.30 | |||
| 20260506183516 | -17 | 0.0 | 0.0 | 0.00 | 0.20 | 0.30 | |||
| 20260506181515 | -17 | 0.0 | 0.0 | 0.00 | 0.20 | 0.30 | |||
| 20260506175016 | 15 | 0.0 | 1.6 | 0.00 | 0.20 | 0.30 | 78 | ||
| 20260506174056 | 15 | 0.0 | 6.4 | 0.00 | 0.20 | 0.30 | 78 | ||
| 20260506173015 | 15 | 0.0 | 1.6 | 0.00 | 0.20 | 0.30 | 77 | ||
| 20260506172016 | 15 | 0.0 | 4.8 | 0.00 | 0.20 | 0.30 | 76 | ||
| 20260506171015 | 15 | 0.0 | 4.8 | 0.00 | 0.20 | 0.30 | 77 | ||
| 20260506170036 | 16 | 0.0 | 4.8 | 0.00 | 0.20 | 0.30 | 78 | ||
| 20260506165015 | 16 | 0.0 | 8.0 | 0.00 | 0.20 | 0.30 | 78 | ||
| 20260506164016 | 15 | 1.6 | 8.0 | 0.00 | 0.20 | 0.30 | 78 | ||
| 20260506163015 | 16 | 0.0 | 1.6 | 0.00 | 0.20 | 0.30 | 79 | ||
| 20260506162015 | 15 | 0.0 | 6.4 | 0.00 | 0.20 | 0.30 | 79 | ||
| 20260506161015 | 15 | 1.6 | 9.7 | 0.00 | 0.20 | 0.30 | 78 | ||
| 20260506160015 | 16 | 4.8 | 16.1 | 0.00 | 0.20 | 0.30 | 76 | ||
| 20260506155016 | 16 | 0.0 | 3.2 | 0.00 | 0.20 | 0.30 | 77 | ||
| 20260506154016 | 16 | 1.6 | 6.4 | 0.00 | 0.23 | 0.30 | 76 | ||
| 20260506153015 | 16 | 1.6 | 6.4 | 0.00 | 0.23 | 0.30 | 75 | ||
| 20260506152015 | 16 | 1.6 | 8.0 | 0.00 | 0.23 | 0.30 | 75 | ||
| 20260506151015 | 16 | 1.6 | 6.4 | 0.00 | 0.23 | 0.30 | 75 | ||
| 20260506150037 | 16 | 0.0 | 3.2 | 0.00 | 0.23 | 0.30 | 74 | ||
| 20260506145015 | 16 | 1.6 | 6.4 | 0.00 | 0.23 | 0.30 | 74 | ||
| 20260506144016 | 16 | 1.6 | 8.0 | 0.00 | 0.23 | 0.30 | 75 | ||
| 20260506143016 | 16 | 0.0 | 6.4 | 0.00 | 0.23 | 0.30 | 76 | ||
| 20260506142016 | 16 | 0.0 | 6.4 | 0.00 | 0.23 | 0.30 | 77 | ||
| 20260506141035 | 15 | 1.6 | 8.0 | 0.00 | 0.23 | 0.30 | 78 | ||
| 20260506140035 | 15 | 0.0 | 6.4 | 0.00 | 0.23 | 0.30 | 81 | ||
| 20260506135016 | 15 | 0.0 | 4.8 | 0.00 | 0.23 | 0.30 | 81 | ||
| 20260506134015 | 15 | 1.6 | 6.4 | 0.00 | 0.33 | 0.30 | 81 | ||
| 20260506133015 | 15 | 0.0 | 3.2 | 0.00 | 0.33 | 0.30 | 80 | ||
| 20260506132015 | 15 | 0.0 | 3.2 | 0.00 | 0.33 | 0.30 | 80 | ||
| 20260506131016 | 15 | 0.0 | 1.6 | 0.00 | 0.33 | 0.30 | 80 | ||
| 20260506130015 | 15 | 0.0 | 3.2 | 0.00 | 0.33 | 0.30 | 80 | ||
| 20260506125015 | 15 | 0.0 | 1.6 | 0.00 | 0.33 | 0.30 | 80 | ||
| 20260506124015 | 15 | 0.0 | 6.4 | 0.03 | 0.33 | 0.30 | 80 | ||
| 20260506123016 | 15 | 0.0 | 6.4 | 0.03 | 0.33 | 0.30 | 80 | ||
| 20260506122016 | 15 | 0.0 | 3.2 | 0.05 | 0.33 | 0.30 | 80 | ||
| 20260506121015 | 15 | 0.0 | 0.0 | 0.05 | 0.33 | 0.30 | 80 | ||
| 20260506120015 | 15 | 0.0 | 6.4 | 0.05 | 0.33 | 0.30 | 80 | ||
| 20260506115015 | 15 | 0.0 | 4.8 | 0.08 | 0.33 | 0.30 | 80 | ||
| 20260506114015 | 15 | 0.0 | 6.4 | 0.13 | 0.30 | 0.28 | 80 | ||
| 20260506113016 | 14 | 0.0 | 4.8 | 0.15 | 0.30 | 0.28 | 79 | ||
| 20260506112015 | 13 | 0.0 | 6.4 | 0.15 | 0.28 | 0.25 | 79 | ||
| 20260506111015 | 13 | 1.6 | 12.9 | 0.15 | 0.28 | 0.25 | 79 | ||
| 20260506110015 | 13 | 4.8 | 16.1 | 0.15 | 0.25 | 0.23 | 78 | ||
| 20260506105015 | 13 | 3.2 | 17.7 | 0.13 | 0.23 | 0.23 | 77 | ||
| 20260506104015 | 13 | 6.4 | 14.5 | 0.05 | 0.18 | 0.15 | 78 | ||
| 20260506103015 | 13 | 8.0 | 20.9 | 0.03 | 0.15 | 0.13 | 80 | ||
| 20260506102035 | 15 | 12.9 | 24.1 | 0.03 | 0.15 | 0.13 | 80 | ||
| 20260506101015 | 16 | 4.8 | 14.5 | 0.03 | 0.15 | 0.13 | 77 | ||
| 20260506100015 | 16 | 0.0 | 1.6 | 0.00 | 0.13 | 0.10 | 80 | ||
| 20260506095016 | 14 | 0.0 | 0.0 | 0.00 | 0.13 | 0.10 | 77 | ||
| 20260506094015 | 13 | 0.0 | 1.6 | 0.00 | 0.13 | 0.10 | 76 | ||
| 20260506093015 | 13 | 0.0 | 8.0 | 0.00 | 0.13 | 0.10 | 73 | ||
| 20260506092035 | 13 | 0.0 | 0.0 | 0.00 | 0.13 | 0.10 | 66 | ||
| 20260506091015 | 13 | 0.0 | 0.0 | 0.00 | 0.13 | 0.10 | 59 | ||
| 20260506090016 | 13 | 0.0 | 0.0 | 0.00 | 0.13 | 0.10 | 58 | ||
| 20260506085016 | 13 | 0.0 | 0.0 | 0.00 | 0.13 | 0.10 | 58 | ||
| 20260506084516 | -17 | 0.0 | 0.0 | 0.00 | 0.13 | 0.00 | |||
| 20260506083515 | -17 | 0.0 | 0.0 | 0.00 | 0.13 | 0.00 | |||
| 20260506082015 | -17 | 0.0 | 0.0 | 0.00 | 0.13 | 0.00 | |||
| 20260506081015 | -17 | 0.0 | 0.0 | 0.00 | 0.13 | 0.00 | |||
| 20260506073015 | -17 | 0.0 | 0.0 | 0.00 | 0.13 | 0.00 | |||
| 20260506072035 | -17 | 0.0 | 0.0 | 0.00 | 0.13 | 0.00 | |||
| 20260506070515 | -17 | 0.0 | 0.0 | 0.00 | 0.13 | 0.00 | |||
| 20260506061517 | -17 | 0.0 | 0.0 | 0.00 | 0.13 | 0.00 | |||
| 20260506060515 | -17 | 0.0 | 0.0 | 0.00 | 0.13 | 0.00 | |||
| 20260506045017 | -17 | 0.0 | 0.0 | 0.00 | 0.13 | 0.00 | |||
| 20260506043517 | -17 | 0.0 | 0.0 | 0.00 | 0.13 | 0.00 | |||
| 20260506042517 | -17 | 0.0 | 0.0 | 0.00 | 0.13 | 0.00 | |||
| 20260506041017 | -17 | 0.0 | 0.0 | 0.00 | 0.13 | 0.00 | |||
| 20260506040017 | -17 | 0.0 | 0.0 | 0.00 | 0.13 | 0.00 | |||
| 20260506034517 | -17 | 0.0 | 0.0 | 0.00 | 0.13 | 0.00 | |||
| 20260506033537 | -17 | 0.0 | 0.0 | 0.00 | 0.13 | 0.00 | |||
| 20260506032017 | -17 | 0.0 | 0.0 | 0.00 | 0.13 | 0.00 | |||
| 20260506031017 | -17 | 0.0 | 0.0 | 0.00 | 0.13 | 0.00 |